Benson, MN

9:58 AM CDT on May 29, 2017 (GMT -0500)
Benson Municipal

Weather History for KBBB - February, 2013

Change the Weather History Date:

Saturday, February 23, 2013

  Actual Average Record
Temperature  
Mean Temperature 10 °F -  
Max Temperature 21 °F 29 °F 52 °F (1976)
Min Temperature 0 °F 11 °F -15 °F (1993)
Degree Days  
Heating Degree Days 54    
Moisture  
Dew Point 7 °F    
Average Humidity 90    
Maximum Humidity 100    
Minimum Humidity 80    
Precipitation  
Precipitation 0.00 in - - ()
Sea Level Pressure  
Sea Level Pressure 29.88 in    
Wind  
Wind Speed 2 mph (NW)    
Max Wind Speed 8 mph    
Max Gust Speed -    
Visibility 5 miles    
Events Fog , Snow    
Averages and records for this station are not official NWS values.
T = Trace of Precipitation, MM = Missing Value Source: NWS Daily Summary

Daily Weather History Graph

Daily Weather History Graph

Search for Another Location

Airport or City:

Trip Planner

Search our weather history database for the weather conditions in past years. The results will help you decide how hot, cold, wet, or windy it might be!

Date:

Astronomy

Feb. 23, 2013 Rise Set
Actual Time 7:10 AM CST 6:01 PM CST
Civil Twilight 6:40 AM CST 6:31 PM CST
Nautical Twilight 6:06 AM CST 7:06 PM CST
Astronomical Twilight 5:32 AM CST 7:40 PM CST
Moon 4:10 PM CST (2/23) 5:37 AM CST (2/23)
Length of Visible Light 11h 50m
Length of Day
10h 51m
Waxing Gibbous, 95% of the Moon is Illuminated
Feb 23
Waxing Gibbous
Feb 25
Full
Mar 4
Last Quarter
Mar 11
New
Mar 19
First Quarter

Hourly Weather History & Observations

Time (CST) Temp. Windchill Dew Point Humidity Pressure Visibility Wind Dir Wind Speed Gust Speed Precip Events Conditions
12:12 AM 8.6 °F -1.3 °F 6.8 °F 92% 29.89 in 10.0 mi NW 5.8 mph - N/A   Scattered Clouds
12:33 AM 3.2 °F - 1.4 °F 92% 29.89 in 10.0 mi Calm Calm - N/A   Clear
12:53 AM 5.0 °F -4.1 °F 3.2 °F 92% 29.89 in 10.0 mi NW 4.6 mph - N/A   Scattered Clouds
1:12 AM 5.0 °F -2.1 °F 3.2 °F 92% 29.89 in 10.0 mi NW 3.5 mph - N/A   Mostly Cloudy
1:33 AM 8.6 °F 0.1 °F 6.8 °F 92% 29.88 in 10.0 mi NNW 4.6 mph - N/A   Overcast
1:53 AM 10.4 °F -0.4 °F 8.6 °F 92% 29.88 in 10.0 mi NW 6.9 mph - N/A   Overcast
2:12 AM 12.2 °F 4.3 °F 8.6 °F 85% 29.89 in 10.0 mi NNW 4.6 mph - N/A   Overcast
2:33 AM 12.2 °F 2.9 °F 10.4 °F 92% 29.88 in 10.0 mi NNW 5.8 mph - N/A   Overcast
2:53 AM 12.2 °F - 10.4 °F 92% 29.88 in 10.0 mi Calm Calm - N/A   Overcast
3:12 AM 12.2 °F 6.1 °F 10.4 °F 92% 29.87 in 10.0 mi North 3.5 mph - N/A   Overcast
3:33 AM 10.4 °F 4.0 °F 8.6 °F 92% 29.86 in 10.0 mi North 3.5 mph - N/A   Mostly Cloudy
3:53 AM 8.6 °F - 6.8 °F 92% 29.86 in 10.0 mi Calm Calm - N/A   Scattered Clouds
4:12 AM 6.8 °F -2.0 °F 3.2 °F 85% 29.86 in 10.0 mi NW 4.6 mph - N/A   Clear
4:33 AM 1.4 °F -9.9 °F -0.4 °F 92% 29.86 in 10.0 mi WNW 5.8 mph - N/A   Clear
4:53 AM 1.4 °F -12.5 °F -0.4 °F 92% 29.86 in 10.0 mi WNW 8.1 mph - N/A   Clear
5:12 AM 1.4 °F -11.3 °F -2.2 °F 85% 29.86 in 10.0 mi WNW 6.9 mph - N/A   Clear
5:33 AM 1.4 °F -9.9 °F -0.4 °F 92% 29.86 in 10.0 mi NW 5.8 mph - N/A   Scattered Clouds
5:53 AM 3.2 °F - 1.4 °F 92% 29.86 in 0.2 mi Calm Calm - N/A Fog Light Freezing Fog
6:12 AM 3.2 °F - 1.4 °F 92% 29.86 in 0.2 mi Calm Calm - N/A Fog Light Freezing Fog
6:33 AM 3.2 °F - 1.4 °F 92% 29.85 in 0.5 mi Calm Calm - N/A Fog Light Freezing Fog
6:53 AM 3.2 °F - 1.4 °F 92% 29.85 in 0.8 mi Calm Calm - N/A   Overcast
7:12 AM 5.0 °F - 1.4 °F 85% 29.86 in 1.8 mi Calm Calm - N/A Snow Light Snow
7:33 AM 5.0 °F - 3.2 °F 92% 29.86 in 2.0 mi Calm Calm - N/A   Overcast
7:53 AM 6.8 °F - 3.2 °F 85% 29.85 in 2.5 mi Calm Calm - N/A   Overcast
8:12 AM 6.8 °F - 3.2 °F 85% 29.85 in 2.0 mi Calm Calm - N/A   Overcast
8:53 AM 8.6 °F - 6.8 °F 92% 29.86 in 3.0 mi Calm Calm - N/A   Overcast
9:12 AM 8.6 °F - 6.8 °F 92% 29.86 in 4.0 mi Calm Calm - N/A   Overcast
9:33 AM 10.4 °F - 8.6 °F 92% 29.87 in 4.0 mi Calm Calm - N/A   Overcast
9:52 AM 10.4 °F - 8.6 °F 92% 29.87 in 5.0 mi Calm Calm - N/A   Overcast
10:12 AM 10.4 °F - 8.6 °F 92% 29.87 in 7.0 mi Calm Calm - N/A   Overcast
10:33 AM 12.2 °F - 10.4 °F 92% 29.87 in 7.0 mi Calm Calm - N/A   Overcast
10:52 AM 12.2 °F 6.1 °F 10.4 °F 92% 29.87 in 7.0 mi WNW 3.5 mph - N/A   Overcast
11:13 AM 14.0 °F - 12.2 °F 93% 29.87 in 7.0 mi Calm Calm - N/A   Overcast
11:33 AM 15.8 °F 10.2 °F 14.0 °F 93% 29.88 in 5.0 mi WNW 3.5 mph - N/A   Overcast
11:52 AM 17.6 °F 10.7 °F 15.8 °F 93% 29.88 in 2.5 mi West 4.6 mph - N/A   Overcast
12:13 PM 17.6 °F 12.3 °F 15.8 °F 93% 29.88 in 0.2 mi NW 3.5 mph - N/A Fog Light Freezing Fog
12:33 PM 17.6 °F - 17.6 °F 100% 29.88 in 0.5 mi Calm Calm - N/A Fog Light Freezing Fog
12:52 PM 17.6 °F - 15.8 °F 93% 29.87 in 0.5 mi Calm Calm - N/A Fog Light Freezing Fog
1:13 PM 19.4 °F 14.3 °F 17.6 °F 93% 29.86 in 0.8 mi NW 3.5 mph - N/A   Overcast
1:33 PM 19.4 °F - 15.8 °F 86% 29.86 in 1.2 mi Calm Calm - N/A   Overcast
1:52 PM 19.4 °F - 17.6 °F 93% 29.86 in 3.0 mi Calm Calm - N/A   Overcast
2:13 PM 19.4 °F 14.3 °F 17.6 °F 93% 29.86 in 4.0 mi WNW 3.5 mph - N/A   Overcast
2:32 PM 19.4 °F - 17.6 °F 93% 29.86 in 5.0 mi Calm Calm - N/A   Overcast
2:52 PM 21.2 °F - 15.8 °F 80% 29.86 in 10.0 mi Calm Calm - N/A   Scattered Clouds
3:13 PM 21.2 °F - 15.8 °F 80% 29.86 in 10.0 mi Calm Calm - N/A   Clear
3:32 PM 21.2 °F - 15.8 °F 80% 29.86 in 10.0 mi Calm Calm - N/A   Clear
3:53 PM 21.2 °F - 15.8 °F 80% 29.86 in 10.0 mi Calm Calm - N/A   Clear
4:13 PM 19.4 °F 14.3 °F 15.8 °F 86% 29.86 in 10.0 mi NW 3.5 mph - N/A   Clear
4:32 PM 17.6 °F - 15.8 °F 93% 29.86 in 10.0 mi Calm Calm - N/A   Clear
4:53 PM 17.6 °F - 14.0 °F 86% 29.87 in 10.0 mi Calm Calm - N/A   Clear
5:12 PM 17.6 °F - 14.0 °F 86% 29.86 in 10.0 mi Calm Calm - N/A   Clear
5:32 PM 15.8 °F - 14.0 °F 93% 29.86 in 10.0 mi Calm Calm - N/A   Clear
5:53 PM 15.8 °F - 14.0 °F 93% 29.87 in 10.0 mi Calm Calm - N/A   Clear
6:12 PM 12.2 °F - 10.4 °F 92% 29.87 in 2.5 mi Calm Calm - N/A   Clear
6:33 PM 10.4 °F - 8.6 °F 92% 29.88 in 1.0 mi Calm Calm - N/A   Mostly Cloudy
6:53 PM 8.6 °F - 6.8 °F 92% 29.88 in 1.2 mi Calm Calm - N/A   Mostly Cloudy
7:12 PM 8.6 °F - 6.8 °F 92% 29.88 in 1.8 mi Calm Calm - N/A   Mostly Cloudy
7:33 PM 10.4 °F - 6.8 °F 85% 29.88 in 1.8 mi Calm Calm - N/A   Mist
7:53 PM 6.8 °F - 5.0 °F 92% 29.89 in 7.0 mi Calm Calm - N/A   Clear
8:12 PM 3.2 °F - 1.4 °F 92% 29.89 in 0.2 mi Calm Calm - N/A Fog Light Freezing Fog
8:33 PM 3.2 °F - -0.4 °F 85% 29.90 in 0.2 mi Calm Calm - N/A Fog Light Freezing Fog
8:53 PM 1.4 °F - -2.2 °F 85% 29.90 in 0.2 mi Calm Calm - N/A Fog Light Freezing Fog
9:12 PM 1.4 °F - -2.2 °F 85% 29.90 in 0.2 mi Calm Calm - N/A Fog Light Freezing Fog
9:33 PM 1.4 °F - -2.2 °F 85% 29.91 in 0.2 mi Calm Calm - N/A Fog Light Freezing Fog
9:52 PM 1.4 °F - -2.2 °F 85% 29.91 in 0.2 mi Calm Calm - N/A Fog Light Freezing Fog
10:13 PM 3.2 °F - -0.4 °F 85% 29.92 in 0.5 mi Calm Calm - N/A Fog Light Freezing Fog
10:33 PM 1.4 °F - -0.4 °F 92% 29.92 in 0.5 mi Calm Calm - N/A Fog Light Freezing Fog
10:52 PM 1.4 °F - -2.2 °F 85% 29.92 in 7.0 mi Calm Calm - N/A   Overcast
11:13 PM -0.4 °F - -2.2 °F 92% 29.92 in 0.2 mi Calm Calm - N/A Fog Light Freezing Fog
11:33 PM 1.4 °F - -2.2 °F 85% 29.93 in 0.2 mi Calm Calm - N/A Fog Light Freezing Fog
11:52 PM 1.4 °F - -2.2 °F 85% 29.94 in 0.2 mi Calm Calm - N/A Fog Light Freezing Fog